Retour au catalogue

SHIYAN 30-04

ActifMilitaireVLEO
NORAD 68140·PAYLOAD·🇨🇳 China

Lancé Mar 12, 2026 depuis Xichang Satellite Launch Center

Loading…

Prochains Passages (prochaines 24 heures)

TLE

FraisSource: Space-Track

Époque: Sep 14, 2026, 21:41 UTC

1 68140U 26048B   26257.90347709  .00001442  00000-0  14236-3 0  9990
2 68140  34.9909  90.1448 0001845  42.2773 317.8073 14.91951988 27771

Suivez SHIYAN 30-04 en temps réel avec AllMySat

Download on the App Store